Regional Weather Roundup
Issued by NWS

Home | Current Version | Previous Version | Graphics & Text | Print | Product List | Glossary On
Versions: 1 2 3 4 5 6 7 8 9 10 11 12 13 14 15 16 17 18 19 20 21 22 23 24 25 26 27 28 29 30 31 32 33 34 35 36 37 38 39 40 41 42 43 44 45 46 47 48 49 50
000
ASUS43 KMKX 280621
RWRWI

WISCONSIN REGIONAL WEATHER ROUNDUP
NATIONAL WEATHER SERVICE MILWAUKEE/SULLIVAN WI
100 AM CDT MON JUL 28 2014

NOTE: "FAIR" INDICATES FEW OR NO CLOUDS BELOW 12,000 FEET WITH NO
SIGNIFICANT WEATHER AND/OR OBSTRUCTIONS TO VISIBILITY.

WIZ001-002-006>008-014>016-023>028-280700-
NORTHWEST WISCONSIN

CITY           SKY/WX    TMP DP  RH WIND       PRES   REMARKS
SUPERIOR ARPT  PTCLDY    53  52  95 CALM      30.11R
6HR MIN TEMP:  53; 6HR MAX TEMP:  61;

ASHLAND        CLEAR     51  50  96 SW5       30.11S
6HR MIN TEMP:  50; 6HR MAX TEMP:  62;

HAYWARD        CLEAR     50  48  93 CALM      30.12R
6HR MIN TEMP:  49; 6HR MAX TEMP:  63;

SIREN          PTCLDY    56  55  96 NW3       30.12S
6HR MIN TEMP:  55; 6HR MAX TEMP:  64;

RICE LAKE      CLOUDY    55  52  89 CALM      30.13R
6HR MIN TEMP:  55; 6HR MAX TEMP:  65;

LADYSMITH      CLEAR     55  51  88 NW8       30.12S
6HR MIN TEMP:  55; 6HR MAX TEMP:  64;

EAU CLAIRE     CLOUDY    57  53  86 NW6       30.10R
6HR MIN TEMP:  55; 6HR MAX TEMP:  68;

MENOMONIE      PTCLDY    56  53  90 CALM      30.12R
6HR MIN TEMP:  56; 6HR MAX TEMP:  69;

NEW RICHMOND   MOCLDY    59  57  94 NW3       30.14R
6HR MIN TEMP:  57; 6HR MAX TEMP:  67;

OSCEOLA        MOCLDY    60  58  92 CALM      30.16R
6HR MIN TEMP:  59; 6HR MAX TEMP:  67;

$$

WIZ003>005-009-010-017-018-280700-
NORTH CENTRAL WISCONSIN

CITY           SKY/WX    TMP DP  RH WIND       PRES   REMARKS
WOODRUFF       CLEAR     51  49  92 N3        30.08R
6HR MIN TEMP:  50; 6HR MAX TEMP:  62;

RHINELANDER    CLEAR     51  49  92 NW3       30.07R
6HR MIN TEMP:  51; 6HR MAX TEMP:  60;

EAGLE RIVER    CLEAR     50  49  94 N3        30.06R
6HR MIN TEMP:  50; 6HR MAX TEMP:  61;

LAND O LAKES   CLEAR     53  48  86 N6        30.07S
6HR MIN TEMP:  52; 6HR MAX TEMP:  63;

PHILLIPS       CLEAR     49  48  97 CALM      30.09S
6HR MIN TEMP:  49; 6HR MAX TEMP:  62;

TOMAHAWK       CLEAR     49  48  94 NW3       30.08R
6HR MIN TEMP:  49; 6HR MAX TEMP:  60;

MEDFORD        CLEAR     51  50  95 NW6       30.08S
6HR MIN TEMP:  51; 6HR MAX TEMP:  62;

MERRILL        CLEAR     52  51  97 NW3       30.06R
6HR MIN TEMP:  51; 6HR MAX TEMP:  61;

$$

WIZ029-030-035-036-043>047-280700-
CENTRAL WISCONSIN

CITY           SKY/WX    TMP DP  RH WIND       PRES   REMARKS
WAUSAU         CLEAR     55  52  89 NW7       30.05R
6HR MIN TEMP:  55; 6HR MAX TEMP:  65;

MOSINEE        CLEAR     52  52 100 NW7       30.07R
MARSHFIELD     CLEAR     54  51  90 NW9       30.07R
6HR MIN TEMP:  54; 6HR MAX TEMP:  68;

STEVENS POINT  CLEAR     53  49  89 NW3       30.06R
6HR MIN TEMP:  53; 6HR MAX TEMP:  64;

WAUPACA        CLEAR     58  52  83 NW6       30.03R
6HR MIN TEMP:  58; 6HR MAX TEMP:  68; 6HR PCP:  0.01;

WAUTOMA        CLEAR     57  52  84 NW6       30.03S
6HR MIN TEMP:  57; 6HR MAX TEMP:  70;

WISC RAPIDS    CLEAR     56  52  86 MISG      30.07R
6HR MIN TEMP:  56; 6HR MAX TEMP:  69;

CAMP DOUGLAS   CLEAR     55  55  98 NW7       30.06S
6HR MIN TEMP:  54; 6HR MAX TEMP:  67;

$$

WIZ011>013-019>022-031-037>040-048>050-280700-
NORTHEAST WISCONSIN

CITY           SKY/WX    TMP DP  RH WIND       PRES   REMARKS
ANTIGO         CLEAR     50  49  93 N6        30.05R
6HR MIN TEMP:  50; 6HR MAX TEMP:  61;

STURGEON BAY   CLEAR     57  46  67 N17G23    29.97S
6HR MIN TEMP:  57; 6HR MAX TEMP:  63;

GREEN BAY      CLEAR     57  50  77 N9        29.99R
6HR MIN TEMP:  57; 6HR MAX TEMP:  67;

MANITOWOC      CLEAR     59  48  67 N13       29.95S
6HR MIN TEMP:  59; 6HR MAX TEMP:  64; 6HR PCP:  0.01;

APPLETON       CLEAR     55  50  82 N13       30.01R
CLINTONVILLE   CLEAR     55  50  82 NW5       30.02R
OSHKOSH        CLEAR     59  52  77 N12       30.00R
6HR MIN TEMP:  59; 6HR MAX TEMP:  69;

$$

WIZ032>034-041-042-053>061-280700-
SOUTHWEST WISCONSIN

CITY           SKY/WX    TMP DP  RH WIND       PRES   REMARKS
LA CROSSE      CLEAR     59  54  83 N7        30.08R
6HR MIN TEMP:  59; 6HR MAX TEMP:  76;

SPARTA         CLEAR     56  52  86 NW3       30.09R
6HR MIN TEMP:  54; 6HR MAX TEMP:  70;

VIROQUA        FAIR      57  54  89 N6        30.08R
6HR MIN TEMP:  57; 6HR MAX TEMP:  71;

BOSCOBEL       CLEAR     64  54  69 N8        30.05R
6HR MIN TEMP:  63; 6HR MAX TEMP:  77; 6HR PCP:  0.10;

PRAIRIE DU CHI CLEAR     64  55  73 N7        30.05R
6HR MIN TEMP:  64; 6HR MAX TEMP:  74;

PLATTEVILLE    MOCLDY    63  58  83 N12       30.04R
6HR MIN TEMP:  63; 6HR MAX TEMP:  73;

$$

WIZ056-057-062-063-064-067-068-280700-
SOUTH CENTRAL WISCONSIN

CITY           SKY/WX    TMP DP  RH WIND       PRES   REMARKS
BARABOO/DELLS  CLEAR     59  51  75 N7        30.04R
6HR MIN TEMP:  59; 6HR MAX TEMP:  69;

LONE ROCK      CLEAR     65  55  70 N8        30.04R
6HR MIN TEMP:  65; 6HR MAX TEMP:  76;

WATERTOWN      CLEAR     59  54  83 NW8       29.98S
6HR MIN TEMP:  58; 6HR MAX TEMP:  72; 6HR PCP:  0.01;

MADISON        CLEAR     60  54  80 NW7       30.01R
6HR MIN TEMP:  60; 6HR MAX TEMP:  71; 6HR PCP: TRACE;

MIDDLETON      FAIR      60  57  88 N3        30.02S
6HR MIN TEMP:  60; 6HR MAX TEMP:  71; 6HR PCP:  0.17;

MONROE         CLEAR     59  55  88 N13       30.00R
JANESVILLE     CLEAR     63  52  67 N12       29.98R
$$

WIZ051-052-058>065-066-070>072-280700-
SOUTHEAST WISCONSIN

CITY           SKY/WX    TMP DP  RH WIND       PRES   REMARKS
MILWAUKEE      PTCLDY    62  52  69 NW9       29.95R
6HR MIN TEMP:  62; 6HR MAX TEMP:  71; 6HR PCP:  0.03;

WAUKESHA       CLEAR     57  50  77 N8        29.98R
MILWAUKEE/TIMM CLEAR     59  50  72 N10       29.96R
RACINE         CLOUDY    62  52  69 N14G21    29.95R
6HR MIN TEMP:  62; 6HR MAX TEMP:  72; 6HR PCP:  0.01;

BURLINGTON     CLEAR     59  51  73 N10       29.96R
6HR MIN TEMP:  59; 6HR MAX TEMP:  69;

KENOSHA        CLOUDY    62  54  74 NW8       29.95R
6HR MIN TEMP:  62; 6HR MAX TEMP:  73; 6HR PCP:  0.19;

FOND DU LAC    CLEAR     59  51  75 N12       29.99R
6HR MIN TEMP:  59; 6HR MAX TEMP:  69; 6HR PCP:  0.09;

SHEBOYGAN      CLEAR     60  50  69 N12       29.96R
6HR MIN TEMP:  59; 6HR MAX TEMP:  66; 6HR PCP:  0.01;

WEST BEND      CLEAR     57  48  72 NW9       29.97R
JUNEAU         CLEAR     58  51  79 NW9       30.00S
6HR MIN TEMP:  58; 6HR MAX TEMP:  69;

$$

LSZ147-162-280700-
LAKE SUPERIOR

STATION/POSITION TIME  TEMP    WIND        PRES    WAVE
                       AIR SEA DIR/SP/G            HT/PER
                 (UTC) (F)     (DEG/KT/KT) (MB)    (FT/S)
W MID LAKE BUOY  0550   48 43  290/ 10/ 10 1018.7S   1/ 4
PORT WING        0500   55     130/  2/  4 1019.3
SAXON HARBOR     0500             CALM     1019.0R
$$

LMZ867-665-643>646-280700-
LAKE MICHIGAN

STATION/POSITION TIME  TEMP    WIND        PRES    WAVE
                       AIR SEA DIR/SP/G            HT/PER
                 (UTC) (F)     (DEG/KT/KT) (MB)    (FT/S)
N MID LAKE BUOY  0550   56 55  350/ 19/ 23 1012.8R   4/ 5
NORTHPORT PIER   0501   58     340/ 21/ 25 1014.6R
KEWAUNEE LAKESHO 0600   58     340/ 11/ 16 1014.9R
SHEBOYGAN LAKESH 0600   58     350/ 19/ 21 1014.2R
PORT WASHINGTON  0500   64     350/  5/ 13 1014.2R
ATWATER BUOY     0600   63     340/ 12     1015.0R
MILWAUKEE LAKESH 0600   62     340/ 10/ 14   N/A
S MID LAKE BUOY  0550   62 60  340/ 25/ 29 1011.3R   9/ 7
KENOSHA   LAKESH 0600   63     340/ 15/ 20 1013.2R
$$

TC  - TEMPERATURE IN CELSIUS
VSB - VISIBILITY IN STATUTE MILES
WCI - WIND CHILL INDEX
HX  - HEAT INDEX



USA.gov is the U.S. government's official web portal to all federal, state and local government web resources and services.